Wind_Speed
14 14 14 16 18 19 18 20 21 21 21 23 25 27 30 31 35 25 9 21 11 14 13 6 5 5 6 3 4 5 1 6 7 8 10 4 5 6 8 3 3 6 8 8 25
14 14 15 15 16 18 20 19 20 21 22 22 23 26 29 32 30 17 24 19 15 15 17 11 5 7 2 4 4 5 5 10 6 8 11 8 4 6 4 7 4 4 5 20 29
14 15 16 16 16 17 19 21 21 20 21 23 24 24 29 26 6 7 3 7 7 11 12 11 7 5 6 4 6 6 12 13 12 9 10 11 9 3 3 5 8 8 2 11 15
17 17 17 17 17 19 22 24 23 22 22 22 23 23 27 8 6 2 6 7 3 10 13 6 4 4 6 9 10 7 8 8 14 13 11 18 8 8 6 12 8 10 5 12 12
18 18 17 18 19 21 25 26 25 24 23 21 20 20 12 3 12 10 9 9 7 10 10 6 7 7 6 5 6 9 12 14 16 14 15 16 16 15 11 13 9 9 9 15 17
19 20 19 20 21 22 25 27 27 26 24 23 19 15 3 6 11 6 12 8 10 12 6 8 6 8 5 8 9 6 11 14 11 15 9 9 10 3 11 7 8 9 12 12 17
20 20 20 20 23 24 27 31 32 27 25 22 17 10 8 24 9 8 21 23 12 13 4 9 13 5 3 6 8 10 13 13 6 6 6 8 13 10 9 8 9 11 12 12 13
21 20 21 22 23 25 29 34 34 31 28 23 10 5 9 19 22 27 20 20 15 12 14 16 14 7 6 5 7 3 4 4 4 4 6 7 23 11 11 9 11 13 15 14 13
22 22 19 21 24 27 29 36 39 35 29 14 6 6 11 13 9 14 17 11 10 14 12 12 3 5 3 3 3 3 12 9 5 5 5 7 13 8 10 7 9 12 18 16 16
20 20 19 19 23 25 31 36 32 11 5 8 4 3 10 5 4 6 9 15 3 2 1 4 2 3 2 4 13 8 7 5 5 3 8 15 19 10 7 7 12 14 21 14 11
21 20 18 17 21 24 29 15 4 2 5 9 11 7 9 7 10 5 6 2 4 3 6 4 4 7 10 11 4 3 5 7 1 5 5 10 20 12 7 11 15 16 16 12 10
21 20 17 16 20 21 25 4 4 8 10 15 21 23 28 15 9 18 7 2 6 7 5 2 14 7 7 6 7 9 11 17 13 10 12 13 20 11 7 10 10 10 16 13 4
20 16 13 17 20 15 9 13 20 15 4 8 12 11 10 18 16 25 5 4 3 5 8 11 5 15 11 11 12 12 13 12 17 10 7 4 19 14 13 11 13 18 14 14 10
20 15 11 15 13 11 11 23 20 6 2 7 7 8 8 9 7 14 16 7 6 9 7 11 12 14 10 15 13 15 16 19 16 7 9 4 18 12 12 18 20 20 17 16 10
16 16 13 8 14 6 12 30 21 1 2 2 5 9 12 10 2 1 10 6 13 6 6 7 3 14 17 16 13 14 17 15 17 6 4 3 3 8 1 12 20 18 17 17 10
14 12 9 8 7 16 20 23 5 3 6 5 3 2 6 8 1 3 5 5 7 3 12 8 6 2 4 4 7 5 7 5 2 4 4 6 4 21 3 10 16 17 13 17 7
14 8 7 9 4 17 21 6 3 4 8 6 8 10 12 4 5 3 4 6 5 5 13 8 19 14 6 7 7 5 2 2 2 1 6 7 7 15 15 15 20 24 21 22 15
8 7 12 18 16 13 11 1 6 4 3 12 12 13 5 6 6 8 5 5 5 3 0 7 6 13 8 19 8 8 8 5 6 5 7 6 6 5 6 12 21 16 15 20 18
9 9 11 20 5 5 2 5 2 2 9 12 11 5 7 7 9 5 10 9 10 14 7 5 6 3 4 21 14 7 8 7 4 3 3 4 5 6 5 12 21 21 24 17 18
6 8 10 13 10 6 3 4 3 7 10 11 6 8 7 14 11 12 4 3 9 10 13 4 4 3 6 5 6 11 7 1 2 6 13 6 6 8 9 16 16 21 16 15 9
3 3 6 7 9 3 3 4 4 8 10 6 7 7 7 7 8 5 9 6 12 6 8 3 1 5 4 1 7 4 1 1 1 4 5 2 4 6 7 9 19 20 21 15 12
1 1 2 6 2 2 2 2 4 10 6 5 3 6 5 6 5 5 6 4 15 15 6 1 2 4 7 7 4 3 3 5 4 5 5 3 5 9 8 12 5 16 19 20 17
1 3 4 4 3 2 3 5 8 9 8 4 3 4 2 3 6 2 5 12 14 9 7 2 1 2 2 4 6 5 4 6 5 4 12 3 4 3 12 6 3 12 19 19 19
0 3 3 2 2 1 5 8 7 6 10 10 10 8 7 5 9 5 4 7 9 11 21 6 2 3 2 2 3 2 6 7 4 2 4 3 7 8 4 4 8 11 19 17 14
2 4 4 2 2 5 5 4 10 7 3 4 4 9 7 5 3 4 4 6 8 12 7 4 3 3 1 3 5 6 5 13 4 7 3 4 6 4 7 8 11 6 13 8 19
3 2 3 3 4 5 3 1 10 11 8 9 4 9 10 7 5 9 7 5 2 6 6 6 3 4 3 5 5 6 6 4 8 8 11 12 5 8 6 3 7 11 12 5 11
8 2 2 3 1 2 3 3 6 10 8 6 14 11 3 7 2 8 8 11 5 2 1 1 1 3 2 6 6 3 3 7 3 9 5 0 4 7 9 12 12 13 12 12 12
Wind_Direction
321 323 325 326 326 325 324 326 328 330 330 332 333 333 331 330 322 317 242 254 259 244 210 162 181 190 195 235 196 132 158 237 217 203 255 359 359 331 313 145 213 195 160 200 165
317 318 321 320 322 323 321 322 324 323 323 328 331 331 331 332 321 272 286 268 241 237 217 215 189 168 192 217 212 159 187 234 211 233 276 314 317 305 305 325 291 277 49 133 149
310 313 315 318 317 317 315 316 316 316 319 325 328 331 331 330 298 248 49 93 181 192 215 209 214 161 197 175 217 220 229 249 268 262 261 275 283 244 221 253 246 234 172 161 162
305 309 310 314 315 316 315 315 313 313 317 322 328 330 335 338 273 319 114 56 185 208 214 205 170 187 210 202 222 246 243 240 262 257 266 267 271 258 207 241 213 224 209 161 180
303 308 308 311 312 315 316 313 311 308 311 318 325 332 348 336 254 249 285 296 274 219 198 191 182 172 203 215 227 234 248 253 260 257 255 267 264 258 252 255 235 251 171 180 191
299 305 306 308 309 311 315 315 310 304 305 311 320 331 307 273 257 287 248 288 272 223 201 196 215 206 269 215 228 261 236 249 252 262 260 258 266 234 260 260 261 268 264 196 195
295 298 302 305 310 310 311 311 305 299 300 304 312 309 264 244 254 242 281 287 266 231 246 247 250 216 249 308 252 255 266 278 248 233 248 284 278 243 254 271 263 262 256 258 207
296 296 299 305 310 310 310 311 302 295 295 298 305 248 253 265 294 284 269 270 252 257 249 270 275 240 190 234 313 256 248 250 152 228 248 210 270 261 268 270 269 265 262 251 245
300 292 297 303 311 312 311 311 300 294 290 278 252 177 261 298 264 278 237 238 230 240 255 277 271 215 181 155 337 238 255 257 300 221 266 219 280 265 266 289 279 285 276 256 245
295 296 292 305 311 314 314 312 307 301 173 151 194 211 261 250 277 254 221 214 201 163 70 211 169 203 94 130 229 220 250 214 200 239 276 280 281 275 290 304 295 297 293 251 232
295 292 289 305 312 317 321 338 356 10 237 203 184 231 290 324 331 258 359 175 208 151 177 207 187 204 192 210 230 242 257 250 308 249 286 269 275 276 280 301 300 303 290 243 221
307 292 289 306 310 314 309 246 243 300 286 245 248 244 245 266 307 287 331 278 184 207 167 237 236 197 203 222 245 250 261 268 280 260 257 269 274 280 259 272 268 295 302 261 190
313 294 289 302 308 313 301 270 319 304 271 272 226 242 229 209 232 254 200 187 230 249 203 217 219 192 193 222 235 246 241 254 249 267 263 265 275 283 298 309 300 291 284 269 204
305 302 301 304 310 310 288 337 337 291 291 272 216 243 170 191 230 234 215 171 213 221 229 249 226 241 215 226 210 244 238 247 256 237 256 181 275 259 287 276 281 277 285 277 231
296 290 287 300 302 292 317 331 334 155 330 190 186 164 153 173 329 158 166 160 211 199 169 226 186 202 228 232 220 239 248 240 245 211 133 230 263 278 200 287 274 272 271 276 238
300 277 278 288 285 289 329 325 327 67 250 329 54 228 150 237 328 54 145 135 172 254 280 258 296 250 207 238 222 256 232 217 141 135 234 181 159 284 227 248 275 273 275 276 237
308 294 266 279 255 317 337 352 102 217 325 22 355 328 295 229 218 154 178 181 157 153 234 269 261 259 243 288 276 199 197 231 282 210 236 191 207 258 270 265 270 277 282 281 283
306 296 277 269 280 298 336 82 212 261 299 16 335 297 244 219 238 189 188 183 225 166 191 204 284 213 201 215 194 205 179 179 211 218 255 204 234 247 226 330 310 250 312 269 256
314 311 270 273 271 250 244 234 295 315 24 350 342 352 5 3 344 296 203 210 200 188 192 199 259 218 205 218 179 210 224 189 208 188 267 224 275 294 16 346 340 350 347 312 261
341 297 272 296 243 164 238 248 284 356 358 351 349 42 336 355 351 339 245 222 229 184 195 258 263 265 277 140 211 195 170 202 228 223 252 259 265 258 12 340 330 325 335 355 332
310 333 288 345 152 112 245 265 315 308 345 16 354 319 320 324 316 315 352 349 352 337 199 212 174 284 321 244 182 171 184 115 59 169 217 300 255 93 61 322 336 321 335 357 351
284 332 14 135 107 182 211 246 239 270 294 312 221 278 292 336 308 320 332 324 336 328 292 273 121 233 237 47 42 52 244 172 173 240 230 207 256 124 170 235 4 317 322 330 335
239 267 357 105 193 238 278 255 231 264 272 261 244 215 290 312 300 303 329 329 337 338 274 288 230 220 239 25 25 29 344 10 324 178 241 227 259 135 51 45 34 345 334 323 312
133 309 320 74 141 284 238 253 260 271 268 249 258 261 262 257 243 259 334 284 295 294 262 223 104 112 143 82 218 323 337 328 38 344 340 288 302 342 145 200 126 58 300 287 302
154 241 220 315 237 215 233 311 300 298 297 286 242 226 250 266 310 249 350 324 299 269 290 46 37 17 27 268 258 271 183 274 252 274 237 324 304 7 12 36 7 354 311 346 337
157 176 310 272 282 231 257 273 253 277 292 300 268 258 239 247 233 300 287 276 287 319 359 354 349 15 318 7 355 304 291 231 255 235 246 246 247 7 10 315 13 11 349 4 1
208 256 87 268 5 31 236 264 322 338 297 295 296 279 242 240 244 245 256 281 278 272 294 230 109 40 295 350 329 303 303 259 227 39 294 352 17 342 358 16 25 10 26 56 41
Height
826 824 821 819 817 814 810 807 804 800 797 794 791 788 784 779 771 767 761 751 751 752 756 756 757 760 764 766 763 765 790 794 781 773 754 738 744 731 727 725 722 720 724 720 727
826 824 822 819 816 813 811 807 803 800 797 793 790 787 782 778 769 759 743 743 746 751 754 754 755 757 764 764 763 770 786 772 757 754 750 742 745 740 736 736 729 722 721 719 725
824 822 821 819 815 812 810 806 803 799 795 792 789 784 781 777 770 746 740 739 743 747 751 751 752 755 762 759 760 759 760 753 749 748 747 745 742 734 736 742 732 728 721 724 724
823 820 818 816 814 811 807 804 800 796 792 789 786 784 780 776 769 741 740 742 744 746 747 748 752 759 761 758 749 761 748 748 742 742 743 741 735 735 733 726 716 716 716 721 725
820 818 815 812 811 808 805 801 797 793 790 787 785 785 779 778 756 743 742 742 742 744 743 745 749 752 756 751 749 750 744 740 737 737 736 731 733 730 724 711 712 711 713 715 717
816 816 813 809 807 804 801 798 793 790 787 785 784 783 783 780 740 740 741 740 739 741 739 741 740 741 745 744 746 735 736 736 735 733 730 732 727 724 715 706 707 706 706 709 709
813 812 809 806 805 799 796 794 788 785 782 781 781 782 779 751 737 737 738 736 736 736 737 736 737 742 737 742 731 732 742 735 735 731 729 723 728 724 710 707 708 706 701 699 700
811 808 805 803 800 795 792 788 782 779 777 776 778 780 767 737 735 729 731 729 731 732 734 733 733 736 736 732 731 738 740 747 727 725 721 725 724 714 705 707 707 703 698 696 693
807 805 800 801 796 792 787 780 772 770 770 771 776 776 759 735 731 721 725 726 725 727 728 730 730 732 731 742 750 745 747 744 740 723 725 725 723 709 700 703 705 700 693 688 685
803 801 799 796 794 788 784 773 762 761 762 768 771 775 744 728 724 720 719 722 722 723 728 732 733 737 743 748 748 750 749 743 743 728 724 725 715 711 706 705 704 698 688 684 680
800 798 796 793 789 787 784 774 768 764 762 753 748 743 729 724 723 721 721 723 723 724 733 729 740 744 739 733 731 737 741 743 733 725 730 729 713 711 706 702 699 692 686 683 676
797 793 792 790 787 783 784 780 770 771 759 745 740 732 728 730 734 720 723 725 721 729 726 733 731 728 731 735 738 740 742 737 729 726 727 727 711 706 703 698 694 691 683 682 673
793 790 788 787 784 779 780 776 769 766 764 735 726 721 720 725 726 710 724 722 724 726 725 728 718 713 725 732 738 737 739 737 735 726 720 721 707 701 692 690 686 678 675 672 667
791 788 786 784 783 778 774 771 768 765 770 733 718 708 707 713 716 702 708 719 721 723 721 719 711 716 718 724 730 738 722 723 727 734 739 720 717 703 697 692 686 677 669 666 666
786 786 784 783 781 778 773 767 763 762 760 708 703 698 698 706 698 694 698 712 716 715 717 717 709 712 715 716 718 721 714 719 720 728 732 729 738 695 696 696 685 671 662 655 655
783 783 782 780 778 776 773 767 763 771 757 708 700 702 706 702 698 694 701 705 709 717 713 716 707 709 708 705 708 708 713 712 717 728 743 728 729 686 703 689 676 662 653 646 651
779 779 780 778 776 776 772 767 773 767 722 717 719 715 708 704 701 700 703 710 718 728 724 717 709 704 704 711 706 709 717 736 743 740 734 713 723 695 688 680 673 661 649 641 639
778 777 776 774 773 775 776 776 769 733 729 724 727 714 705 701 701 700 705 712 711 712 720 725 722 701 695 699 708 710 715 732 731 734 724 708 713 699 675 671 661 649 639 630 631
777 776 772 767 771 775 779 767 752 740 736 736 725 716 712 709 712 703 701 702 700 704 718 716 711 684 683 680 693 702 708 701 714 713 722 711 696 679 672 674 669 652 644 631 617
777 775 768 762 768 773 773 761 754 747 744 741 743 736 734 735 726 716 699 695 692 692 695 700 705 683 677 679 685 687 688 709 711 722 723 706 701 692 682 691 676 669 658 645 634
778 777 763 761 765 772 780 767 758 748 746 750 748 744 736 740 736 728 721 705 712 698 691 697 700 696 680 683 687 691 696 695 700 711 717 719 700 683 691 694 691 673 654 649 646
778 787 763 764 774 772 782 763 760 752 749 749 749 746 740 746 743 735 728 728 723 721 707 699 700 702 692 682 677 680 685 694 712 711 707 708 695 674 687 692 685 675 659 651 647
778 776 764 764 772 775 769 761 758 753 749 747 745 744 750 757 750 743 738 728 724 724 714 698 701 702 694 693 692 702 698 693 690 694 701 715 699 670 677 678 676 673 661 655 647
779 780 771 767 769 768 766 761 759 747 746 743 742 739 741 749 744 738 739 732 723 726 714 699 699 704 706 706 705 707 709 697 703 712 709 704 690 683 678 672 676 673 674 664 648
778 780 771 766 770 764 766 763 757 753 743 740 739 737 738 744 738 734 737 734 725 720 701 696 706 702 702 699 698 696 705 704 699 701 706 695 696 683 683 677 677 677 665 659 649
777 779 768 764 761 760 761 757 753 749 747 750 741 736 737 741 737 740 735 727 717 713 708 703 709 706 703 698 699 699 695 696 692 686 686 684 688 695 690 686 682 676 667 658 660
769 768 768 764 761 764 762 752 752 752 745 740 738 733 736 735 733 731 732 722 718 717 717 715 715 721 714 707 701 702 693 687 687 699 692 694 701 698 691 684 686 680 672 669 671